Skip Page Navigation
NASA JPL Caltech
NASA Logo - Jet Propulsion Laboratory + View the NASA Portal
+ Center for Near-Earth Object Studies
JPL Home Earth Solar System Stars & Galaxies Technology
JPL Solar System Dynamics
BODIES ORBITS EPHEMERIDES TOOLS PHYSICAL DATA DISCOVERY FAQ SITE MAP
JPL Small-Body Database Browser
Search: [ help ]  
143 Adria (A875 DA)
Classification: Main-belt Asteroid          SPK-ID: 2000143
Ephemeris | Orbit Diagram | Orbital Elements | Mission Design | Physical Parameters | Discovery Circumstances ]

[ show orbit diagram ]
Orbital Elements at Epoch 2459200.5 (2020-Dec-17.0) TDB
Reference: JPL 56 (heliocentric ecliptic J2000)
 Element Value Uncertainty (1-sigma)   Units 
e .07390781854879547 2.0198e-08  
a 2.761145340913029 7.5788e-09 au
q 2.557075112069977 5.3144e-08 au
i 11.44420644817275 8.9242e-07 deg
node 332.9767249035035 5.162e-06 deg
peri 252.3153652708959 1.3367e-05 deg
M 210.1307140459183 1.7347e-05 deg
tp 2459898.157818484512
(2022-Nov-14.65781848)
8.2557e-05 TDB
period 1675.839135787809
4.59
6.8998e-06
1.889e-08
d
yr
n .21481775446828 8.8445e-10 deg/d
Q 2.965215569756082 8.1389e-09 au
  Orbit Determination Parameters
   # obs. used (total)      3408  
   data-arc span      51469 days (140.91 yr)  
   first obs. used      1880-04-13  
   last obs. used      2021-03-14  
   planetary ephem.      DE441  
   SB-pert. ephem.      SB441-N16  
   condition code      0  
   norm. resid. RMS      .38478  
   source      ORB  
   producer      Otto Matic  
   solution date      2021-Apr-12 10:21:45  

Additional Information
 Earth MOID = 1.57682 au 
 Jupiter MOID = 2.10231 au 
 T_jup = 3.309 
[ show covariance matrix ]

Ephemeris | Orbit Diagram | Orbital Elements | Mission Design | Physical Parameters | Discovery Circumstances ]

Physical Parameter Table
Parameter Symbol Value Units Sigma Reference Notes
absolute magnitude H 9.02   n/a E2021B10 IRAS observations used: 23
diameter diameter 95.377 km 0.698 urn:nasa:pds:neowise_diameters_albedos::2.0[mainbelt] (http://adsabs.harvard.edu/abs/2012ApJ...759L...8M)  
rotation period rot_per 22.005 h n/a LCDB (Rev. 2020-October); Warner et al., 2009 Published Reference List:
[Behrend, R. (2005) Observatoire de Geneve web site, http://obswww.unige.ch/~behrend/page_cou.html]
[Warner, B.D. (2007) Minor Planet Bull. 34, 32-37.]
[Pilcher, F. (2008) Minor Planet Bull. 35, 135-138.]
geometric albedo albedo 0.044   0.007 urn:nasa:pds:neowise_diameters_albedos::2.0[mainbelt] (http://adsabs.harvard.edu/abs/2012ApJ...759L...8M)  
B-V BV 0.738   0.026 EAR-A-5-DDR-UBV-MEAN-VALUES-V1.2 #obs=2; phase (min.=3.57, mean=3.79, max.=4.01) deg.
U-B UB 0.336   0.021 EAR-A-5-DDR-UBV-MEAN-VALUES-V1.2 #obs=2; phase (min.=3.57, mean=3.79, max.=4.01) deg.
Tholen spectral type spec_T C   n/a EAR-A-5-DDR-TAXONOMY-V4.0 used 2 color indices
SMASSII spectral type spec_B Xc   n/a EAR-A-5-DDR-TAXONOMY-V4.0 based on a high-resolution spectrum by Xu et al. (1995) or Bus and Binzel (2002)

143 Adria (A875 DA)          Discovered 1875-Feb-23 by Palisa, J. at Pola
Reference: DISCOVERY.DBLast Updated: 2003-08-29

Alternate Designations
 A875 DA = 1960 WK1 
Ephemeris | Orbit Diagram | Orbital Elements | Mission Design | Physical Parameters | Discovery Circumstances ]
ABOUT SSD CREDITS/AWARDS PRIVACY/COPYRIGHT GLOSSARY LINKS
FirstGov 2021-Apr-16 12:26 UT
(server date/time)  
NASA Home Page
Site Manager:   Ryan S. Park
Webmaster  Alan B. Chamberlin